Lexington Weather

Lexington, Massachusetts, USA

47°F
10/22/2019 2:29am 
  • Lexington Conditions: Mostly cloudy
  • Temperature: 46.6°F / 8.1°CWarmer 1.3°F than last hour.
  • Dew Point: 45.0°FIncreased 1.8°Fsince last hour.
  • Relative Humidity: 94%Increased 2.0% since last hour.
  • Wind: Calm, 10-min avg: Calm, gust: None
  • Barometer: 30.12 in Steady
  • Visibility: 9 miles
  • Rain Today: 0.00 in
  •   

Regional Weather Roundup
for Boston, MA

        
000
ASUS41 KBOX 191010
RWRBOX

REGIONAL WEATHER ROUNDUP
NATIONAL WEATHER SERVICE BOSTON/NORTON MA
600 AM EDT SAT OCT 19 2019

NOTE:  "FAIR" INDICATES FEW OR NO CLOUDS BELOW 12,000 FEET WITH NO 
SIGNIFICANT WEATHER AND/OR OBSTRUCTIONS TO VISIBILITY.

MAZALL-191100-
EASTERN MASSACHUSETTS
  
CITY           SKY/WX    TMP DP  RH WIND       PRES   REMARKS
BOSTON         FAIR      45  34  65 W9        29.97S                  
BEVERLY        FAIR      39  33  79 NW6       29.95S                  
LAWRENCE       FAIR      37  33  85 SW5       29.99R                  
BEDFORD        FAIR      38  32  79 W3        29.97R                  
BLUE HILL      NOT AVBL                                               
NORWOOD        FAIR      35  31  85 CALM      29.98S                  
MARSHFIELD     FAIR      39  37  93 W6        29.97R                  
PLYMOUTH       FAIR      39  35  86 W6        29.97R                  
TAUNTON        FAIR      39  34  82 W5        29.98R                  
NEW BEDFORD    FAIR      40  34  79 W6        29.98R                  
$$

MAZALL-191100-
CAPE COD AND THE ISLANDS
  
CITY           SKY/WX    TMP DP  RH WIND       PRES   REMARKS
FALMOUTH       CLEAR     39  36  87 NW6       29.97R                  
HYANNIS        FAIR      43  35  73 W6        29.95S                  
CHATHAM        NOT AVBL                                               
PROVINCETOWN   FAIR      47  39  74 NW18        N/A                   
NANTUCKET      FAIR      47  37  68 NW16      29.96R                  
MARTHAS VNYRD  FAIR      44  37  76 NW9       29.98R                  
$$
 
MAZALL-191100-
CENTRAL AND WESTERN MASSACHUSETTS
  
CITY           SKY/WX    TMP DP  RH WIND       PRES   REMARKS
WORCESTER      FAIR      34  32  92 W6        29.97S WCI  29          
FITCHBURG      FAIR      34  31  88 CALM      29.99R                  
ORANGE         FAIR      32  29  88 CALM      30.00R                  
SPRINGFIELD    FAIR      31  29  93 CALM      29.99S                  
WESTFIELD      FAIR      31  29  92 CALM      30.00S                  
NORTH ADAMS    FAIR      32  30  92 NW3       30.02R                  
PITTSFIELD     FAIR      36  32  85 SE3       29.97F                  
$$
 
RIZALL-191100-
RHODE ISLAND
  
CITY           SKY/WX    TMP DP  RH WIND       PRES   REMARKS
PROVIDENCE     FAIR      39  35  86 W6        30.01R                  
NEWPORT        FAIR      45  35  68 NW8       29.99R                  
BLOCK ISLAND   FAIR      45  35  68 N7        30.01S                  
SMITHFIELD     FAIR     N/A N/A N/A NW5       29.99S                  
WESTERLY       FAIR      40  36  86 CALM      30.02S                  
$$
 
CTZALL-191100-
CONNECTICUT
  
CITY           SKY/WX    TMP DP  RH WIND       PRES   REMARKS
BRADLEY INTL   FAIR      35  30  82 W3        30.01R                  
HARTFORD       FAIR      38  35  89 CALM      30.02R                  
BRIDGEPORT     FAIR      40  35  83 CALM      30.03R                  
DANBURY        FAIR      33  31  92 SW3       30.03R                  
GROTON         FAIR      40  36  86 CALM      30.01S                  
NEW HAVEN      FAIR      38  34  85 CALM      30.02S                  
CHESTER        FAIR      37  36  93 CALM      30.01S                  
MERIDEN        FAIR      32  31  96 CALM      30.02S                  
WILLIMANTIC    FAIR      35  32  88 CALM      30.02S                  
OXFORD         FAIR      34  33  96 CALM      30.01R                  
$$

MEZ002-015-021-024-NHZ003-005-008-011-012-014-VTZ005-008-191100-
NORTHERN NEW ENGLAND
  
CITY           SKY/WX    TMP DP  RH WIND       PRES   REMARKS
PORTLAND ME    FAIR      38  33  82 W6        29.93R                  
BANGOR ME      FAIR      43  36  76 W5        29.86R                  
CONCORD NH     FAIR      42  32  67 NW8       29.96S                  
MANCHESTER NH  FAIR      43  33  68 W5        29.96R                  
NASHUA NH      FAIR      33  33 100 NW3       29.98S                  
PORTSMOUTH NH  CLEAR     41  35  78 W8        29.93S                  
JAFFREY NH     FAIR      38  31  76 VRB5      29.97R                  
KEENE NH       FAIR      33  32  96 CALM      30.00R                  
BURLINGTON VT  MOCLDY    43  32  65 W6        30.02R                  
MT. WASHINGTON FOG       19  19 100 NW56        N/A  VSB 1/16WCI  -5  
$$

NYZ052-076-191100-
EASTERN NEW YORK
  
CITY           SKY/WX    TMP DP  RH WIND       PRES   REMARKS
ALBANY         FAIR      39  35  86 CALM      30.04S                  
NEW YORK CITY  FAIR      47  35  63 NW6       30.03S                  
$$
 
ANZALL-191100-
MARINE OBSERVATIONS
  
STATION/POSITION TIME  TEMP    WIND        PRES    VSBY  WAVE
                       AIR SEA DIR/SP/G                  HT/PER
                 (UTC) (F)     (DEG/KT/KT) (MB)    (MI)  (FT/S)
BOSTON BUOY      0950   48 56  310/ 19/ 21 1013.5R         2/ 3
BUZZARDS BAY     0900   47     320/ 16/ 18 1015.7R
NANTUCKET SOUND  0940      56                N/A           2/ 3
MASS BAY-STELLWA 0904   47 55  300/ 16/ 19 1013.5R  1 7/8  2/ 3
ISLE OF SHOALS   0900   45     290/ 18/ 19 1013.1R
S OF BLOCK IS    1000      60                N/A           4/ 4
$$

......................KEY.........................
  SKY/WX - SKY CONDITION/PRESENT WEATHER
  TMP    - TEMPERATURE IN FAHRENHEIT
  DWPT   - DEWPOINT IN FAHRENHEIT
  RH     - RELATIVE HUMIDITY IN PERCENT
  WIND   - DIRECTION AND SPEED IN MPH
  PRES   - MEAN SEA LEVEL PRESSURE IN INCHES OF HG
  WCI    - WIND CHILL INDEX
  VSB    - VISIBILITY IN MILES
  HX     - HEAT INDEX
  TC     - TEMPERATURE IN CELSIUS
  VRB    - VARIABLE WIND DIRECTION
  N/A    - NOT AVAILABLE
  
      

Other recent Regional Weather Roundups

Tue Oct 22, 2:10am

Tue Oct 22, 2:00am

Tue Oct 22, 1:10am

Tue Oct 22, 1:00am

Tue Oct 22, 12:10am

Tue Oct 22, 12:00am

Mon Oct 21, 11:10pm

Mon Oct 21, 11:00pm

Mon Oct 21, 10:10pm

Mon Oct 21, 10:01pm

Mon Oct 21, 9:10pm

Mon Oct 21, 9:00pm

Mon Oct 21, 8:10pm

Mon Oct 21, 8:00pm

Mon Oct 21, 7:10pm

Mon Oct 21, 7:01pm

Mon Oct 21, 6:10pm

Mon Oct 21, 6:01pm

Mon Oct 21, 5:10pm

Mon Oct 21, 5:01pm

Mon Oct 21, 4:10pm

Mon Oct 21, 4:00pm

Mon Oct 21, 3:10pm

Mon Oct 21, 3:01pm

Mon Oct 21, 2:10pm

Mon Oct 21, 2:00pm

Mon Oct 21, 1:10pm

Mon Oct 21, 1:01pm

Mon Oct 21, 12:10pm

Mon Oct 21, 12:00pm

Mon Oct 21, 11:10am

Mon Oct 21, 11:00am

Mon Oct 21, 10:10am

Mon Oct 21, 10:00am

Mon Oct 21, 9:10am

Mon Oct 21, 9:00am

Mon Oct 21, 7:10am

Mon Oct 21, 7:00am

Mon Oct 21, 6:10am

Mon Oct 21, 6:00am

Mon Oct 21, 5:10am

Mon Oct 21, 5:00am

Mon Oct 21, 4:10am

Mon Oct 21, 4:00am

Mon Oct 21, 3:10am

Mon Oct 21, 3:00am

Mon Oct 21, 2:10am

Mon Oct 21, 2:01am

Mon Oct 21, 1:10am

Mon Oct 21, 1:00am

Mon Oct 21, 12:10am

Mon Oct 21, 12:00am

Sun Oct 20, 11:10pm

Sun Oct 20, 11:00pm

Sun Oct 20, 10:10pm

Sun Oct 20, 10:00pm

Sun Oct 20, 9:10pm

Sun Oct 20, 9:01pm

Sun Oct 20, 8:10pm

Sun Oct 20, 8:00pm

Sun Oct 20, 7:10pm

Sun Oct 20, 7:01pm

Sun Oct 20, 6:10pm

Sun Oct 20, 6:00pm

Sun Oct 20, 5:10pm

Sun Oct 20, 5:00pm

Sun Oct 20, 4:10pm

Sun Oct 20, 4:00pm

Sun Oct 20, 3:10pm

Sun Oct 20, 3:00pm

Sun Oct 20, 2:10pm

Sun Oct 20, 2:01pm

Sun Oct 20, 1:10pm

Sun Oct 20, 1:01pm

Sun Oct 20, 12:10pm

Sun Oct 20, 12:00pm

Sun Oct 20, 11:10am

Sun Oct 20, 11:00am

Sun Oct 20, 10:10am

Sun Oct 20, 10:00am

Sun Oct 20, 9:10am

Sun Oct 20, 9:00am

Sun Oct 20, 8:10am

Sun Oct 20, 8:00am

Sun Oct 20, 7:10am

Sun Oct 20, 7:00am

Sun Oct 20, 6:10am

Sun Oct 20, 6:00am

Sun Oct 20, 5:10am

Sun Oct 20, 5:00am

Sun Oct 20, 4:10am

Sun Oct 20, 4:00am

Sun Oct 20, 3:10am

Sun Oct 20, 3:00am

Sun Oct 20, 2:10am

Sun Oct 20, 2:00am

Sun Oct 20, 1:10am

Sun Oct 20, 1:00am

Sun Oct 20, 12:10am

Sun Oct 20, 12:00am

Sat Oct 19, 11:10pm

Sat Oct 19, 11:00pm

Sat Oct 19, 10:10pm

Sat Oct 19, 10:00pm

Sat Oct 19, 9:10pm

Sat Oct 19, 9:00pm

Sat Oct 19, 8:10pm

Sat Oct 19, 8:00pm

Sat Oct 19, 7:10pm

Sat Oct 19, 7:00pm

Sat Oct 19, 6:10pm

Sat Oct 19, 6:00pm

Sat Oct 19, 5:10pm

Sat Oct 19, 5:00pm

Sat Oct 19, 4:10pm

Sat Oct 19, 4:00pm

Sat Oct 19, 3:10pm

Sat Oct 19, 3:01pm

Sat Oct 19, 2:10pm

Sat Oct 19, 2:00pm

Sat Oct 19, 1:10pm

Sat Oct 19, 1:01pm

Sat Oct 19, 12:10pm

Sat Oct 19, 12:00pm

Sat Oct 19, 11:10am

Sat Oct 19, 11:01am

Sat Oct 19, 10:10am

Sat Oct 19, 10:00am

Sat Oct 19, 9:10am

Sat Oct 19, 9:00am

Sat Oct 19, 8:10am

Sat Oct 19, 8:00am

Sat Oct 19, 7:10am

Sat Oct 19, 7:00am

Sat Oct 19, 6:00am

Sat Oct 19, 5:10am

Sat Oct 19, 5:00am

Sat Oct 19, 4:10am

Sat Oct 19, 4:00am

Sat Oct 19, 3:10am

Sat Oct 19, 3:00am

Meta data:

ID: a76b6840-bad1-41e5-b485-473e16e22ad8
Link: https://api.weather.gov/products/a76b6840-bad1-41e5-b485-473e16e22ad8